ドゥ・トイト-ニェウイミン-デルポルト彗星

57P/du Toit-Neujmin-Delporte (2021)

English version
Home page
Updated on February 5, 2022

---------------------------------------------------------------------

・ プロフィール

・ 写真集

・ 軌道要素

Epoch 2022 Jan. 21.0 TT = JDT 2459600.5
T 2021 Oct. 17.39709 TT                                 Rudenko
q   1.7200364            (2000.0)            P               Q
n   0.15397446     Peri.  115.25489     +0.55935781     +0.82889163
a   3.4474945      Node   188.76830     -0.77729998     +0.52132055
e   0.5010764      Incl.    2.85133     -0.28796455     +0.20288801
P   6.40
From 1189 observations 2015 Feb. 18-2022 Jan. 24, mean residual 0".7.

・ 星図

・ 光度変化

        m1 = 10.0 + 5 logΔ + 22.0 log r  [  ,-1]  (              〜2021年10月16日)
        m1 =  1.0 + 5 logΔ + 40   log r  [-1,  ]  (2021年10月16日〜              )

---------------------------------------------------------------------

軌道要素はM.P.E.C. 2022-C56に掲載されたものです。
星図はステラナビゲータ Ver.10 (アストロアーツ) で作成したものです。
光度グラフはComet for Windowsで作成したものです。

---------------------------------------------------------------------

Copyright(C) Seiichi Yoshida (comet@aerith.net). All rights reserved.